Weather History for Mount Pleasant, MI

Change the Weather History Date:

Saturday, December 29, 2012

  Actual Average (KAMN) Record (KAMN)
Temperature  
Mean Temperature 24 °F -  
Max Temperature 29 °F 31 °F 63 °F (1984)
Min Temperature 19 °F 17 °F -5 °F (1976)
Degree Days  
Heating Degree Days 42    
Moisture  
Dew Point 20 °F    
Average Humidity 83    
Maximum Humidity 93    
Minimum Humidity 68    
Precipitation  
Precipitation 0.00 in - - ()
Sea Level Pressure  
Sea Level Pressure 29.91 in    
Wind  
Wind Speed 2 mph (NW)    
Max Wind Speed 7 mph    
Max Gust Speed -    
Visibility 8 miles    
Events Snow    
Averages and records for this station are not official NWS values.
T = Trace of Precipitation, MM = Missing Value Source: NWS Daily Summary

Daily Weather History Graph

Daily Weather History Graph

Search for Another Location

Airport:

Trip Planner

Search our weather history database for the weather conditions in past years. The results will help you decide how hot, cold, wet, or windy it might be!

Date:

Astronomy

Dec. 29, 2012 Rise Set
Actual Time 8:12 AM EST 5:10 PM EST
Civil Twilight 7:39 AM EST 5:43 PM EST
Nautical Twilight 7:03 AM EST 6:19 PM EST
Astronomical Twilight 6:28 AM EST 6:54 PM EST
Moon 6:46 PM EST (12/29) 8:42 AM EST (12/29)
Length of Visible Light 10h 04m
Length of Day
8h 58m
Full, 98% of the Moon is Illuminated
Dec 29
Full
Jan 4
Last Quarter
Jan 11
New
Jan 18
First Quarter
Jan 26
Full

Hourly Weather History & Observations

Time (EST) Temp. Windchill Dew Point Humidity Pressure Visibility Wind Dir Wind Speed Gust Speed Precip Events Conditions
12:15 AM 25.3 °F - 22.1 °F 87% 29.94 in 10.0 mi Calm Calm - N/A Snow Light Snow
12:34 AM 25.3 °F - 22.1 °F 87% 29.93 in 10.0 mi Calm Calm - N/A   Overcast
12:55 AM 25.3 °F - 22.1 °F 87% 29.93 in 10.0 mi Calm Calm - N/A Snow Light Snow
1:15 AM 25.3 °F - 22.1 °F 87% 29.92 in 5.0 mi Calm Calm - N/A Snow Light Snow
1:35 AM 25.2 °F - 22.5 °F 89% 29.91 in 4.0 mi Calm Calm - N/A Snow Light Snow
1:55 AM 25.2 °F - 22.6 °F 90% 29.91 in 3.0 mi Calm Calm - N/A Snow Light Snow
2:15 AM 25.2 °F - 22.6 °F 90% 29.90 in 4.0 mi Calm Calm - N/A Snow Light Snow
2:35 AM 25.0 °F - 22.6 °F 91% 29.90 in 5.0 mi Calm Calm - N/A Snow Light Snow
2:55 AM 24.8 °F - 22.6 °F 91% 29.90 in 5.0 mi Calm Calm - N/A Snow Light Snow
3:15 AM 24.8 °F - 22.8 °F 92% 29.90 in 5.0 mi Calm Calm - N/A Snow Light Snow
3:35 AM 24.8 °F - 22.8 °F 92% 29.90 in 7.0 mi Calm Calm - N/A Snow Light Snow
3:55 AM 24.8 °F - 22.8 °F 92% 29.89 in 5.0 mi Calm Calm - N/A Snow Light Snow
4:15 AM 24.8 °F - 22.8 °F 92% 29.88 in 4.0 mi Calm Calm - N/A Snow Light Snow
4:35 AM 24.8 °F 20.5 °F 22.8 °F 92% 29.88 in 4.0 mi NNE 3.5 mph - N/A Snow Light Snow
4:55 AM 24.8 °F - 22.8 °F 92% 29.88 in 4.0 mi Calm Calm - N/A Snow Light Snow
5:15 AM 24.8 °F - 23.0 °F 93% 29.88 in 4.0 mi Calm Calm - N/A Snow Light Snow
5:35 AM 24.8 °F - 22.8 °F 92% 29.88 in 4.0 mi Calm Calm - N/A Snow Light Snow
5:55 AM 24.8 °F 20.5 °F 23.0 °F 93% 29.87 in 3.0 mi NNE 3.5 mph - N/A Snow Light Snow
6:15 AM 24.8 °F 20.5 °F 23.0 °F 93% 29.87 in 4.0 mi North 3.5 mph - N/A Snow Light Snow
6:35 AM 24.6 °F 18.8 °F 22.8 °F 93% 29.87 in 5.0 mi NNE 4.6 mph - N/A Snow Light Snow
6:55 AM 24.4 °F 18.6 °F 22.6 °F 93% 29.87 in 5.0 mi North 4.6 mph - N/A Snow Light Snow
7:15 AM 24.3 °F 17.3 °F 22.3 °F 92% 29.87 in 7.0 mi North 5.8 mph - N/A Snow Light Snow
7:35 AM 24.3 °F 18.4 °F 22.1 °F 91% 29.87 in 5.0 mi North 4.6 mph - N/A Snow Light Snow
7:55 AM 23.9 °F 18.0 °F 22.1 °F 93% 29.87 in 5.0 mi North 4.6 mph - N/A Snow Light Snow
8:15 AM 23.9 °F 16.8 °F 21.7 °F 91% 29.86 in 5.0 mi North 5.8 mph - N/A Snow Light Snow
8:35 AM 23.9 °F 18.0 °F 21.7 °F 91% 29.86 in 4.0 mi North 4.6 mph - N/A Snow Light Snow
8:55 AM 23.9 °F - 21.6 °F 91% 29.86 in 5.0 mi Calm Calm - N/A   Overcast
9:15 AM 23.7 °F 19.3 °F 21.2 °F 90% 29.87 in 7.0 mi NNW 3.5 mph - N/A   Overcast
9:35 AM 23.4 °F 17.4 °F 20.5 °F 89% 29.87 in 10.0 mi North 4.6 mph - N/A   Scattered Clouds
9:55 AM 23.7 °F 19.3 °F 20.3 °F 87% 29.87 in 10.0 mi NNW 3.5 mph - N/A   Mostly Cloudy
10:14 AM 24.3 °F 18.4 °F 20.1 °F 84% 29.87 in 10.0 mi North 4.6 mph - N/A   Overcast
10:35 AM 24.6 °F 20.3 °F 20.1 °F 83% 29.88 in 10.0 mi NNW 3.5 mph - N/A   Overcast
10:55 AM 25.3 °F 21.1 °F 20.3 °F 81% 29.88 in 10.0 mi North 3.5 mph - N/A   Overcast
11:14 AM 26.1 °F 20.5 °F 20.7 °F 80% 29.87 in 10.0 mi North 4.6 mph - N/A   Overcast
11:35 AM 27.1 °F 19.7 °F 20.7 °F 77% 29.86 in 10.0 mi North 6.9 mph - N/A   Overcast
11:55 AM 27.5 °F 21.1 °F 20.8 °F 76% 29.86 in 10.0 mi North 5.8 mph - N/A   Scattered Clouds
12:15 PM 28.0 °F 20.8 °F 20.3 °F 73% 29.86 in 10.0 mi NNW 6.9 mph - N/A   Mostly Cloudy
12:35 PM 28.2 °F 21.0 °F 20.3 °F 72% 29.85 in 10.0 mi North 6.9 mph - N/A   Overcast
12:55 PM 28.4 °F 22.2 °F 20.3 °F 72% 29.85 in 10.0 mi North 5.8 mph - N/A   Overcast
1:15 PM 28.8 °F 21.7 °F 19.9 °F 70% 29.85 in 10.0 mi North 6.9 mph - N/A   Overcast
1:35 PM 28.8 °F 22.6 °F 19.8 °F 69% 29.85 in 10.0 mi North 5.8 mph - N/A   Overcast
1:55 PM 28.9 °F 22.8 °F 19.9 °F 69% 29.85 in 10.0 mi NNW 5.8 mph - N/A   Overcast
2:15 PM 28.4 °F 21.2 °F 19.9 °F 71% 29.86 in 10.0 mi NNW 6.9 mph - N/A   Overcast
2:35 PM 28.2 °F 23.1 °F 19.4 °F 70% 29.87 in 10.0 mi NW 4.6 mph - N/A   Overcast
2:55 PM 28.4 °F 23.3 °F 19.2 °F 69% 29.87 in 10.0 mi WNW 4.6 mph - N/A   Overcast
3:15 PM 28.4 °F 24.6 °F 19.0 °F 68% 29.88 in 10.0 mi NNW 3.5 mph - N/A   Overcast
3:35 PM 28.4 °F 21.2 °F 19.4 °F 69% 29.89 in 10.0 mi WNW 6.9 mph - N/A   Overcast
3:54 PM 27.7 °F 21.3 °F 18.7 °F 69% 29.90 in 10.0 mi WNW 5.8 mph - N/A   Overcast
4:15 PM 27.3 °F 20.9 °F 18.7 °F 70% 29.91 in 10.0 mi WNW 5.8 mph - N/A   Overcast
4:35 PM 27.1 °F 19.7 °F 18.7 °F 70% 29.92 in 10.0 mi WNW 6.9 mph - N/A   Overcast
4:54 PM 26.6 °F 20.0 °F 18.5 °F 71% 29.92 in 10.0 mi NW 5.8 mph - N/A   Overcast
5:15 PM 26.6 °F - 18.5 °F 71% 29.93 in 10.0 mi Calm Calm - N/A   Overcast
5:35 PM 26.6 °F - 18.5 °F 71% 29.93 in 10.0 mi Calm Calm - N/A   Overcast
6:15 PM 25.5 °F - 18.5 °F 75% 29.94 in 10.0 mi Calm Calm - N/A   Mostly Cloudy
6:35 PM 24.3 °F - 18.3 °F 78% 29.95 in 10.0 mi Calm Calm - N/A   Clear
6:54 PM 22.8 °F - 18.1 °F 82% 29.96 in 10.0 mi Calm Calm - N/A   Clear
7:15 PM 21.9 °F 17.2 °F 17.8 °F 84% 29.96 in 10.0 mi West 3.5 mph - N/A   Clear
7:35 PM 22.1 °F 17.4 °F 17.6 °F 83% 29.97 in 10.0 mi West 3.5 mph - N/A   Clear
7:55 PM 21.4 °F 15.1 °F 16.9 °F 83% 29.97 in 10.0 mi West 4.6 mph - N/A   Mostly Cloudy
8:15 PM 21.2 °F 16.4 °F 17.1 °F 84% 29.98 in 10.0 mi West 3.5 mph - N/A   Overcast
8:35 PM 21.7 °F 17.0 °F 17.2 °F 83% 29.98 in 10.0 mi West 3.5 mph - N/A   Overcast
8:55 PM 21.4 °F - 17.4 °F 85% 29.98 in 10.0 mi Calm Calm - N/A   Scattered Clouds
9:15 PM 21.2 °F 16.4 °F 17.4 °F 85% 29.99 in 10.0 mi West 3.5 mph - N/A   Scattered Clouds
9:35 PM 21.2 °F 14.9 °F 17.6 °F 86% 29.99 in 10.0 mi West 4.6 mph - N/A   Overcast
9:55 PM 21.4 °F - 17.8 °F 86% 30.00 in 10.0 mi Calm Calm - N/A   Overcast
10:15 PM 20.8 °F 16.0 °F 17.1 °F 85% 30.00 in 10.0 mi West 3.5 mph - N/A   Overcast
10:35 PM 19.9 °F 14.9 °F 16.7 °F 87% 30.01 in 10.0 mi WSW 3.5 mph - N/A   Mostly Cloudy
10:55 PM 20.5 °F 12.8 °F 17.6 °F 89% 30.01 in 10.0 mi WSW 5.8 mph - N/A   Mostly Cloudy
11:15 PM 20.8 °F 13.2 °F 18.1 °F 89% 30.02 in 10.0 mi WSW 5.8 mph - N/A   Mostly Cloudy
11:35 PM 20.7 °F - 18.1 °F 90% 30.03 in 10.0 mi Calm Calm - N/A   Scattered Clouds
11:55 PM 19.2 °F 14.1 °F 16.7 °F 90% 30.03 in 10.0 mi West 3.5 mph - N/A   Clear